SENTINEL-3A (41335 NORAD) Tracking and Keplerian Element Data

This shows tracking and keplerian element data for the satellite.

Feedback or suggestion? Click here.




ElementValue
Catalog41335
NameSENTINEL-3A
Epoch Orbit24827
Epoch Day327.92281872
Epoch Year2020
RAAN32.3865
Inclination98.6215
Eccentricity0.0001356
Argument of Perigee94.6244
Mean Anonmoly265.5091
Mean Motion14.26740645
Decay Rate2E-08
L11 41335U 16011A 20327.92281872 .00000002 00000-0 19023-4 0 9999
L22 41335 98.6215 32.3865 0001356 94.6244 265.5091 14.26740645248270

Live tracking and technical data element details for SENTINEL-3A (NORAD 41335). SENTINEL-3A can be tracked NOW for your location showing map with azimuth and elevation plus other details from your city location.

Track the satellite on the map from your city or location and see movement details for azimuth, elevation, latitude, longitude, range, height, and movement on the map or in text.







IsCatalogInMostPopularTable: catalog: 41335, numindb: 516
Update: records affected: 1



GetName: 41335 SENTINEL-3A

Hit Count: updated at: Mon, 23 Nov 2020 21:56:35 GMT